K5RG-3 Weather Reports


time (UTC)temp
F
wind
direction
speed
knots
gust
knots
rain 1hr
in
rain 24hr
in
rain mn
in
humidity
%
barometer
mb
20260905081543 79 267 0.0 0.0 0.00 0.39 0.00 92 1010.3
20260905080051 79 267 0.0 0.0 0.00 0.39 0.00 92 1010.4
20260905074538 79 267 0.0 0.0 0.00 0.39 0.00 92 1010.4
20260905073044 80 267 0.0 0.0 0.00 0.39 0.00 91 1010.5
20260905071535 80 267 0.0 0.0 0.00 0.39 0.00 91 1010.7
20260905070043 80 267 0.0 1.7 0.00 0.39 0.00 91 1010.9
20260905064531 80 267 0.0 1.7 0.00 0.39 0.00 91 1011.1
20260905063029 80 151 0.0 0.0 0.00 0.39 0.00 91 1011.1
20260905061547 81 152 0.0 0.0 0.00 0.39 0.00 91 1011.2
20260905060028 81 151 0.0 0.0 0.00 0.39 0.00 90 1011.2
20260905054529 81 151 0.0 0.0 0.00 0.39 0.00 90 1011.3
20260905053027 81 151 0.0 0.0 0.00 0.39 0.00 89 1011.2
20260905051532 82 151 0.0 0.0 0.00 0.39 0.00 89 1011.3
20260905050023 82 151 0.0 0.0 0.00 0.39 0.00 89 1011.2
20260905044524 82 151 0.0 0.0 0.00 0.39 0.39 89 1011.4
20260905043135 82 151 0.0 0.0 0.00 0.39 0.39 89 1011.3
20260905041520 82 151 0.0 0.0 0.00 0.39 0.39 89 1011.5
20260905040021 82 151 0.0 0.0 0.00 0.39 0.39 88 1011.6
20260905034526 83 151 0.0 0.0 0.00 0.39 0.39 88 1011.7
20260905033018 83 151 0.0 0.0 0.00 0.39 0.39 88 1011.5
20260905031518 83 151 0.0 0.0 0.00 0.39 0.39 88 1011.8
20260905030018 83 151 0.0 0.0 0.00 0.39 0.39 87 1011.8
20260905024517 83 151 0.0 0.0 0.00 0.39 0.39 86 1011.6
20260905023017 84 151 0.0 0.0 0.00 0.39 0.39 85 1011.5
20260905021515 84 151 0.0 0.0 0.00 0.39 0.39 84 1011.4
20260905020016 84 151 0.0 0.0 0.00 0.39 0.39 84 1011.1
20260905014519 85 151 0.0 0.0 0.00 0.39 0.39 83 1011.0
20260905013014 85 151 0.0 0.0 0.00 0.39 0.39 82 1010.9
20260905011514 85 151 0.0 0.0 0.00 0.39 0.39 81 1010.8
20260905010018 86 151 0.0 0.0 0.00 0.39 0.39 80 1010.6
20260905004514 86 151 0.0 0.9 0.00 0.39 0.39 80 1010.5
20260905003019 87 142 0.0 1.7 0.00 0.39 0.39 80 1010.4
20260905001513 87 160 0.0 0.9 0.00 0.39 0.39 79 1010.5
20260905000028 88 210 0.0 1.7 0.00 0.39 0.39 79 1010.4
20260904234511 88 163 0.0 0.0 0.00 0.39 0.39 79 1010.4
20260904233011 88 131 0.0 2.6 0.00 0.39 0.39 78 1010.3
20260904231512 88 130 0.0 1.7 0.00 0.39 0.39 78 1010.4
20260904230013 89 127 0.0 1.7 0.00 0.39 0.39 77 1010.3
20260904224516 89 131 0.9 2.6 0.00 0.39 0.39 75 1010.4
20260904223013 90 171 0.0 1.7 0.00 0.39 0.39 74 1010.4
20260904221510 89 138 0.0 1.7 0.00 0.39 0.39 73 1010.2
20260904220013 89 154 0.0 1.7 0.00 0.39 0.39 74 1010.2
20260904214513 89 101 0.9 11.3 0.00 0.39 0.39 77 1010.4
20260904213005 89 115 0.0 2.6 0.00 0.39 0.39 77 1010.5
20260904211508 89 167 0.0 3.5 0.00 0.39 0.39 75 1010.6
20260904210004 88 130 0.9 3.5 0.00 0.40 0.39 77 1010.9
20260904204503 85 141 0.0 0.0 0.00 0.40 0.39 82 1011.0
20260904203003 82 133 0.0 0.9 0.01 0.40 0.39 87 1011.2
20260904201502 82 50 0.0 0.9 0.12 0.40 0.39 94 1011.5
20260904200006 80 50 0.0 1.7 0.37 0.50 0.39 93 1011.5
20260904194502 80 327 0.0 0.0 0.39 0.50 0.39 94 1011.7
20260904193002 77 40 0.0 3.5 0.38 0.49 0.38 91 1011.9
20260904191558 77 215 0.9 7.0 0.28 0.39 0.28 84 1012.2
20260904190055 83 143 0.9 5.2 0.02 0.13 0.02 82 1012.6
20260904184558 89 67 0.0 0.0 0.00 0.11 0.00 76 1012.3
20260904183113 90 310 0.9 4.3 0.00 0.11 0.00 74 1012.3
20260904181551 89 81 0.0 2.6 0.00 0.11 0.00 73 1012.5
20260904180114 90 72 1.7 6.1 0.00 0.11 0.00 73 1012.7
20260904174557 90 71 0.9 7.0 0.00 0.11 0.00 73 1012.9
20260904173047 89 176 0.0 2.6 0.00 0.11 0.00 74 1013.0
20260904171546 88 257 0.0 1.7 0.00 0.11 0.00 78 1013.0
20260904170046 87 111 0.0 3.5 0.00 0.11 0.00 79 1013.1
20260904164535 85 171 0.0 0.0 0.00 0.11 0.00 81 1013.3
20260904163031 84 163 0.0 0.9 0.00 0.11 0.00 81 1013.3
20260904161530 84 168 0.0 1.7 0.00 0.11 0.00 81 1013.4
20260904160026 84 75 0.0 4.3 0.00 0.11 0.00 82 1013.2
20260904154528 83 118 0.0 3.5 0.00 0.11 0.00 83 1013.2
20260904153025 84 105 0.0 2.6 0.00 0.11 0.00 86 1013.2
20260904151521 84 131 0.0 3.5 0.00 0.11 0.00 86 1012.8
20260904150028 83 88 0.0 2.6 0.00 0.11 0.00 87 1012.7
20260904144516 83 129 1.7 8.7 0.00 0.11 0.00 87 1012.7
20260904143012 84 128 0.9 3.5 0.00 0.11 0.00 88 1012.6
20260904141516 83 79 0.0 0.9 0.00 0.11 0.00 88 1012.4
20260904140021 82 79 0.0 0.0 0.00 0.11 0.00 89 1012.4
20260904134507 81 79 0.0 2.6 0.00 0.11 0.00 92 1012.2
20260904133007 81 73 0.0 3.5 0.00 0.11 0.00 93 1012.2
20260904131502 81 55 0.9 2.6 0.00 0.11 0.00 93 1012.1
20260904130002 81 76 0.0 0.0 0.00 0.11 0.00 93 1012.0
20260904124609 80 76 0.0 0.0 0.00 0.11 0.00 93 1011.9
20260904123056 80 76 0.0 0.0 0.00 0.11 0.00 93 1011.6
20260904121554 81 76 0.0 0.0 0.00 0.11 0.00 93 1011.3
20260904120104 80 76 0.0 0.0 0.00 0.11 0.00 93 1011.3
20260904114552 80 76 0.0 0.0 0.00 0.11 0.00 92 1011.3
20260904113053 80 76 0.0 0.0 0.00 0.11 0.00 92 1011.2
20260904111548 80 76 0.0 0.0 0.00 0.11 0.00 92 1011.3
20260904110047 80 76 0.0 0.0 0.00 0.11 0.00 92 1011.2
20260904104547 80 114 0.0 0.0 0.00 0.11 0.00 92 1011.3
20260904103044 81 114 0.0 0.0 0.00 0.11 0.00 91 1011.0
20260904101548 81 114 0.0 0.0 0.00 0.11 0.00 91 1010.9
20260904100045 81 114 0.0 0.0 0.00 0.11 0.00 91 1010.8
20260904094547 81 114 0.0 1.7 0.00 0.11 0.00 91 1010.8
20260904093046 81 200 0.0 0.0 0.00 0.11 0.00 91 1010.6
20260904091541 81 200 0.0 0.0 0.00 0.11 0.00 91 1010.6
20260904090042 81 200 0.0 0.0 0.00 0.11 0.00 90 1010.5
20260904084540 81 200 0.0 0.0 0.00 0.11 0.00 90 1010.5
20260904083038 81 200 0.0 0.0 0.00 0.11 0.00 90 1010.6